Cotulla, TX

1:28 PM CST on November 20, 2019 (GMT -0600)
Cotulla-La Salle County

Weather History for KCOT - August, 2019

Change the Weather History Date:

Wednesday, August 28, 2019

  Actual Average Record
Temperature  
Mean Temperature 90 °F -  
Max Temperature 100 °F 93 °F 111 °F (2011)
Min Temperature 80 °F 72 °F 66 °F (2010)
Cooling Degree Days 25    
Growing Degree Days 40 (Base 50)    
Moisture  
Dew Point 73 °F    
Average Humidity 66    
Maximum Humidity 90    
Minimum Humidity 29    
Precipitation  
Precipitation 0.00 in - - ()
Sea Level Pressure  
Sea Level Pressure 29.96 in    
Wind  
Wind Speed 8 mph ()    
Max Wind Speed 17 mph    
Max Gust Speed 23 mph    
Visibility 9.7 miles    
Events      
Averages and records for this station are not official NWS values.
T = Trace of Precipitation, MM = Missing Value Source: Averaged Metar Reports

Daily Weather History Graph

Daily Weather History Graph

Search for Another Location

Airport or City:

Astronomy

Aug. 28, 2019 Rise Set
Actual Time 7:13 AM CDT 8:02 PM CDT
Civil Twilight 6:48 AM CDT 8:26 PM CDT
Nautical Twilight 6:20 AM CDT 8:55 PM CDT
Astronomical Twilight 5:51 AM CDT 9:24 PM CDT
Moon 5:02 AM CDT (8/28) 7:03 PM CDT (8/28)
Length of Visible Light 13h 37m
Length of Day
12h 49m
Waning Crescent, 4% of the Moon is Illuminated
Aug 28
Waning Crescent
Aug 30
New
Sep 5
First Quarter
Sep 13
Full
Sep 21
Last Quarter

Hourly Weather History & Observations

Time (CDT) Temp. Heat Index Dew Point Humidity Pressure Visibility Wind Dir Wind Speed Gust Speed Precip Events Conditions
12:53 AM 84.9 °F 90.7 °F 72.0 °F 65% 29.92 in 10.0 mi SE 10.4 mph - N/A   Clear
1:53 AM 82.9 °F 89.4 °F 73.9 °F 74% 29.91 in 10.0 mi ESE 10.4 mph - N/A   Clear
2:53 AM 82.0 °F 89.4 °F 75.9 °F 82% 29.94 in 10.0 mi ESE 8.1 mph - N/A   Partly Cloudy
3:53 AM 81.0 °F 87.3 °F 75.9 °F 85% 29.93 in 10.0 mi ESE 9.2 mph - N/A   Clear
4:53 AM 80.1 °F 85.4 °F 75.9 °F 87% 29.94 in 10.0 mi East 5.8 mph - N/A   Clear
5:17 AM 81.0 °F 87.9 °F 77.0 °F 88% 29.97 in 10.0 mi East 6.9 mph - N/A   Mostly Cloudy
5:35 AM 80.1 °F 85.8 °F 77.0 °F 90% 29.97 in 10.0 mi East 8.1 mph - N/A   Scattered Clouds
5:53 AM 80.1 °F 85.4 °F 75.9 °F 87% 29.95 in 10.0 mi East 6.9 mph - N/A   Partly Cloudy
6:08 AM 80.1 °F 85.4 °F 75.9 °F 87% 29.98 in 10.0 mi East 5.8 mph - N/A   Mostly Cloudy
6:22 AM 80.1 °F 85.4 °F 75.9 °F 87% 29.98 in 9.0 mi ENE 6.9 mph - N/A   Scattered Clouds
6:53 AM 80.1 °F 85.8 °F 77.0 °F 90% 29.97 in 9.0 mi ENE 5.8 mph - N/A   Clear
7:19 AM 80.1 °F 85.8 °F 77.0 °F 90% 30.01 in 9.0 mi East 5.8 mph - N/A   Mostly Cloudy
7:53 AM 80.1 °F 85.8 °F 77.0 °F 90% 29.99 in 8.0 mi East 6.9 mph - N/A   Mostly Cloudy
8:53 AM 82.9 °F 91.8 °F 77.0 °F 82% 29.98 in 9.0 mi ESE 9.2 mph - N/A   Clear
9:13 AM 84.0 °F 93.7 °F 77.0 °F 79% 30.02 in 9.0 mi ESE 6.9 mph - N/A   Mostly Cloudy
9:20 AM 84.0 °F 93.7 °F 77.0 °F 79% 30.02 in 9.0 mi SE 8.1 mph - N/A   Mostly Cloudy
9:40 AM 84.9 °F 95.3 °F 77.0 °F 77% 30.02 in 9.0 mi ESE 9.2 mph - N/A   Mostly Cloudy
9:53 AM 86.0 °F 96.9 °F 77.0 °F 74% 30.00 in 9.0 mi ESE 11.5 mph - N/A   Mostly Cloudy
10:53 AM 88.0 °F 97.5 °F 75.0 °F 65% 30.00 in 10.0 mi South 5.8 mph - N/A   Mostly Cloudy
11:18 AM 91.9 °F 100.7 °F 73.0 °F 54% 30.03 in 10.0 mi SE 10.4 mph - N/A   Mostly Cloudy
11:53 AM 93.0 °F 100.7 °F 72.0 °F 50% 30.01 in 10.0 mi SSE 10.4 mph 16.1 mph N/A   Clear
12:53 PM 96.1 °F 101.0 °F 68.0 °F 40% 29.99 in 10.0 mi SSE 9.2 mph - N/A   Scattered Clouds
1:53 PM 98.1 °F 102.4 °F 66.9 °F 36% 29.96 in 10.0 mi SE 10.4 mph - N/A   Clear
2:53 PM 99.0 °F 102.9 °F 66.0 °F 34% 29.95 in 10.0 mi Variable 5.8 mph - N/A   Mostly Cloudy
3:53 PM 100.0 °F 103.0 °F 64.0 °F 31% 29.91 in 10.0 mi ESE 15.0 mph 18.4 mph N/A   Scattered Clouds
4:53 PM 100.0 °F 101.8 °F 63.0 °F 29% 29.88 in 10.0 mi ESE 12.7 mph 19.6 mph N/A   Partly Cloudy
5:53 PM 100.9 °F 103.3 °F 63.0 °F 29% 29.88 in 10.0 mi East 12.7 mph 19.6 mph N/A   Scattered Clouds
6:53 PM 97.0 °F 100.4 °F 66.0 °F 36% 29.88 in 10.0 mi SSE 13.8 mph 23.0 mph N/A   Partly Cloudy
7:53 PM 93.9 °F 96.1 °F 64.9 °F 38% 29.89 in 10.0 mi SE 13.8 mph - N/A   Clear
8:53 PM 90.0 °F 94.5 °F 69.1 °F 50% 29.91 in 10.0 mi SE 17.3 mph - N/A   Clear
9:53 PM 88.0 °F 93.8 °F 71.1 °F 57% 29.92 in 10.0 mi SE 13.8 mph - N/A   Clear
10:53 PM 86.0 °F 93.0 °F 73.0 °F 65% 29.95 in 10.0 mi SE 10.4 mph - N/A   Clear
11:53 PM 84.9 °F 93.3 °F 75.0 °F 72% 29.97 in 10.0 mi SE 11.5 mph - N/A   Clear